Regional Weather Roundup
Issued by NWS Glasgow, MT

Home | Current Version | Previous Version | Text Only | Print | Product List | Glossary On
Versions: 1 2 3 4 5 6 7 8 9 10 11 12 13 14 15 16 17 18 19 20 21 22 23 24 25 26 27 28 29 30 31 32 33 34 35 36 37 38 39 40 41 42 43 44 45 46 47 48 49 50
602
ASUS45 KGGW 101715
RWRGGW
HOURLY REGIONAL WEATHER ROUNDUP FOR NORTHEAST MONTANA
NATIONAL WEATHER SERVICE GLASGOW MONTANA
1000 AM MST SAT DEC 10 2016

NOTE: "FAIR" INDICATES FEW OR NO CLOUDS BELOW 12,000 FEET WITH NO
SIGNIFICANT WEATHER AND/OR OBSTRUCTIONS TO VISISBILITY.

NORTHEAST MONTANA


CITY           SKY/WX    TMP DP  RH WIND       PRES   REMARKS
GLASGOW        LGT SNOW  -1  -6  79 E18       29.99F WCI -22
PLENTYWOOD       N/A     -3  -6  87 SE6         N/A
WOLF POINT     LGT SNOW   1  -7  68 E18       30.07F VSB 1   WCI -20
JORDAN           N/A      7   2  80 E10       29.89F WCI  -8
WINNETT          N/A     11   7  84 E7          N/A
SIDNEY         FLURRIES   2  -5  72 SE13      30.09F WCI -15
GLENDIVE       CLOUDY     4   0  83 SE10      30.00F WCI -11
SCOBEY         HAZE      -2 -15  55 E15G21    30.01F VSB 1   WCI -22

FORT PECK REPORTS


CITY           SKY/WX    TMP DP  RH WIND       PRES   REMARKS
FORT PECK        N/A     -2  -5  87 NE14G25     N/A  WCI -21
THE PINES        N/A      6   3  87 NE1         N/A

SOUTHEAST MONTANA


CITY           SKY/WX    TMP DP  RH WIND       PRES   REMARKS
BILLINGS       CLOUDY    10   7  87 S8        29.75F
MILES CITY     CLOUDY     9   0  67 SE13      29.90F WCI  -7
BAKER          CLOUDY     1  -5  75 SE22      29.95S WCI -21
LIVINGSTON     CLOUDY    13   8  81 SE3       29.67F

CENTRAL MONTANA


CITY           SKY/WX    TMP DP  RH WIND       PRES   REMARKS
HAVRE          CLOUDY     6   1  80 E17       29.83F WCI -13
LEWISTOWN      CLOUDY    10   5  80 NE3       29.66F
GREAT FALLS    FLURRIES   4   1  88 CALM      29.70F
CUT BANK       LGT SNOW   1  -2  87 SE6       29.70S VSB 3/4
HELENA         CLOUDY     6   1  80 NW3       29.72F
BUTTE          CLOUDY    19  16  88 S6        29.64F FOG
BOZEMAN        CLOUDY    14  10  84 CALM      29.68F

WESTERN MONTANA


CITY           SKY/WX    TMP DP  RH WIND       PRES   REMARKS
MISSOULA       LGT SNOW  17  15  92 CALM      29.76R FOG
KALISPELL      NOT AVBL

NORTH DAKOTA


CITY           SKY/WX    TMP DP  RH WIND       PRES   REMARKS
WILLISTON      LGT SNOW  -2  -9  72 E13       30.17S WCI -20
DICKINSON      CLOUDY    -3  -8  79 E14       30.05F WCI -22
MINOT          CLOUDY   -15 -19  82 SE3       30.27F
BISMARCK       CLOUDY   -14 -17  87 NE7       30.30F

SOUTHERN SASKATCHEWAN


CITY           SKY/WX    TMP DP  RH WIND       PRES   REMARKS
REGINA         MOSUNNY  -13 -18  77 SE15      30.18F WCI -36
ESTEVAN        CLOUDY   -15 -20  76 E9        30.20F
SWIFT CURRENT  CLOUDY     0  -6  78 SE14G20   29.92F WCI -19





USA.gov is the U.S. government's official web portal to all federal, state and local government web resources and services.